Regional Weather Roundup
Issued by NWS

Home | Current Version | Previous Version | Text Only | Print | Product List | Glossary Off
Versions: 1 2 3 4 5 6 7 8 9 10 11 12 13 14 15 16 17 18 19 20 21 22 23 24 25 26 27 28 29 30 31 32 33 34 35 36 37 38 39 40 41 42 43 44 45 46 47 48 49 50

000
ASUS45 KCYS 281210
RWRWY

WYOMING REGIONAL WEATHER ROUNDUP
NATIONAL WEATHER SERVICE CHEYENNE WY
500 AM MST FRI NOV 28 2014

NOTE:  "FAIR" INDICATES FEW OR NO CLOUDS BELOW 12,000 FEET
WITH NO SIGNIFICANT WEATHER AND/OR OBSTRUCTIONS TO VISIBILITY.

WYZ001-281300-
YELLOWSTONE NATIONAL PARK

CITY           SKY/WX    TMP DP  RH WIND       PRES   REMARKS
LK YELLOWSTONE   N/A     38  19  46 VRB7      29.96F WCI  33
6HR MIN TEMP:  31; 6HR MAX TEMP:  38;

W YELLOWSTONE  NOT AVBL

$$
WYZ002>013-054>058-071-098>099-281300-
NORTHERN WYOMING

CITY           SKY/WX    TMP DP  RH WIND       PRES   REMARKS
JACKSON        CLOUDY    41  25  52 SW7       29.99F
CODY           MOCLDY    50  25  37 W28G44    29.71F
GREYBULL       CLOUDY    36  28  73 E6        29.81S WCI  31
6HR MIN TEMP:  22; 6HR MAX TEMP:  36;

WORLAND        CLOUDY    31  25  78 VRB3      29.82F
6HR MIN TEMP:  20; 6HR MAX TEMP:  35;

SHERIDAN       MOCLDY    54  24  31 W9G32     29.70F
6HR MIN TEMP:  44; 6HR MAX TEMP:  59;

BUFFALO        MOCLDY    52  21  29 CALM      29.75F
6HR MIN TEMP:  45; 6HR MAX TEMP:  58;

GILLETTE       CLOUDY    46  28  49 SW21      29.73S
6HR MIN TEMP:  44; 6HR MAX TEMP:  47;

HULETT           N/A    N/A N/A N/A MISG        N/A
NEWCASTLE      FAIR      34  27  75 N10       29.80F WCI  26

$$
WYZ014>020-022>026-101>103-281300-
CENTRAL WYOMING

CITY           SKY/WX    TMP DP  RH WIND       PRES   REMARKS
BIG PINEY      MOCLDY   N/A N/A N/A VRB3      30.07F
PINEDALE       CLOUDY    18  16  93 CALM      30.08F
DUBOIS         FAIR      36  21  55 NW8       29.97F WCI  29
LANDER         MOCLDY    54  10  17 NW20G39   29.87F
6HR MIN TEMP:  39; 6HR MAX TEMP:  57;

RIVERTON       MOCLDY    41  19  41 W3        29.90F
6HR MIN TEMP:  35; 6HR MAX TEMP:  49;

CASPER         PTCLDY    40  22  48 SW13      29.90F WCI  32
6HR MIN TEMP:  39; 6HR MAX TEMP:  43;

DOUGLAS        CLEAR     45  22  40 CALM      29.85F
6HR MIN TEMP:  39; 6HR MAX TEMP:  53;


$$
WYZ021-027>030-104>119-281300-
SOUTHERN WYOMING

CITY           SKY/WX    TMP DP  RH WIND       PRES   REMARKS
EVANSTON       PTCLDY    40  15  36 SW13      30.10F WCI  32
6HR MIN TEMP:  37; 6HR MAX TEMP:  42;

FORT BRIDGER   FAIR      39  16  38 W8        30.11F WCI  34
ROCK SPRINGS   MOCLDY    37  16  42 SW12      30.08F WCI  29
6HR MIN TEMP:  33; 6HR MAX TEMP:  40;

DIXON          FAIR      42  17  36 SW13      30.15F
RAWLINS        MOCLDY    44  15  31 W24G38    30.02S
6HR MIN TEMP:  40; 6HR MAX TEMP:  46;

SARATOGA       FAIR      41  16  36 S15       30.08F
LARAMIE        CLEAR     38  14  37 SW6       30.04F WCI  33
6HR MIN TEMP:  35; 6HR MAX TEMP:  44;

CHEYENNE       MOCLDY    48  15  26 W14       29.97F
6HR MIN TEMP:  47; 6HR MAX TEMP:  53;

TORRINGTON     CLEAR     50  21  32 SW8       29.85F
6HR MIN TEMP:  41; 6HR MAX TEMP:  54;

PINE BLUFFS    FAIR      37  21  52 W9        29.95F WCI  31

$$



USA.gov is the U.S. government's official web portal to all federal, state and local government web resources and services.